Regional Weather Roundup
Issued by NWS

Home | Current Version | Previous Version | Graphics & Text | Print | Product List | Glossary On
Versions: 1 2 3 4 5 6 7 8 9 10 11 12 13 14 15 16 17 18 19 20 21 22 23 24 25 26 27 28 29 30 31 32 33 34 35 36 37 38 39 40 41 42 43 44 45 46 47 48 49 50
000
ASUS43 KLOT 290400
RWRIL

ILLINOIS REGIONAL WEATHER ROUNDUP
NATIONAL WEATHER SERVICE CHICAGO/ROMEOVILLE IL
1100 PM CDT TUE JUL 28 2015

NOTE: "FAIR" INDICATES FEW OR NO CLOUDS BELOW 12,000 FEET WITH NO
SIGNIFICANT WEATHER AND/OR OBSTRUCTIONS TO VISIBILITY.

* THESE STATIONS ARE NOT UNDER NWS QUALITY CONTROL. THEY ALSO MAY NOT
  REPORT WEATHER SUCH AS PRECIPITATION OR FOG.

ILZ001-002-007-009-015-016-024-290500-
NORTHWEST ILLINOIS

CITY           SKY/WX    TMP DP  RH WIND       PRES   REMARKS
MOLINE         CLOUDY    80  75  84 CALM      29.94R HX  85
STERLING*      CLOUDY    75  72  88 CALM      29.95R
$$

ILZ003-004-008-010-011-017-018-290500-
NORTH CENTRAL ILLINOIS

CITY           SKY/WX    TMP DP  RH WIND       PRES   REMARKS
ROCKFORD       CLOUDY    77  73  87 SW5       29.96R
$$

ILZ005-006-012>014-019>023-290500-
NORTHEAST ILLINOIS

CITY           SKY/WX    TMP DP  RH WIND       PRES   REMARKS
CHICAGO-OHARE  MOCLDY    79  74  84 S5        29.93F HX  82
CHICAGO-MIDWAY MOCLDY    84  73  69 S5        29.93F HX  90
AURORA         PTCLDY    77  71  82 CALM      29.94S
LANSING*       CLEAR     76  69  80 S5        29.95F
WAUKEGAN       PTCLDY    72  70  93 CALM      29.93S
DUPAGE AIRPORT PTCLDY    78  73  84 S5        29.93F HX  81
WHEELING       CLEAR     79  72  79 CALM      29.94S HX  82
NORTHERLY ISL    N/A     82  70  66 S3          N/A  HX  86
$$

LMZ740>746-290500-
SOUTHERN LAKE MICHIGAN

STATION/POSITION SKY/WX   TEMP    WIND        PRES    VSBY  WAVE
                          AIR SEA DIR/SP/G                  HT/PER
                          (F)     (DEG/KT/KT) (MB)    (MI)  (FT/S)
HARRISON CRIB              84     230/  5/  6   N/A
BURNHAM HARBOR             84     250/  2/  8   N/A
CALUMET HARBOR             83     200/  3/  4   N/A
BURNS HARBOR               83     180/  3/  5 1014.9R
MICHIGAN CITY              82     130/  6/  7   N/A
MICHIGAN CITY 6N           78 76  170/  4/  6   N/A           0
ST. JOSEPH                 78 77  180/  4/  6   N/A           0
$$

ILZ025>027-034>036-040-047-049-050-058-095>099-290500-
WEST-CENTRAL ILLINOIS

CITY           SKY/WX    TMP DP  RH WIND       PRES   REMARKS
QUINCY         CLEAR     83  80  91 S5        29.95R HX  95
MACOMB*        PTCLDY    83  79  88 S5        29.95R HX  93
$$

ILZ028>032-037-038-041>044-048-051>054-059>061-290500-
CENTRAL ILLINOIS

CITY           SKY/WX    TMP DP  RH WIND       PRES   REMARKS
DECATUR        CLEAR     75  72  90 CALM      29.97S
PEORIA         PTCLDY    81  72  74 CALM      29.96R HX  85
SPRINGFIELD    PTCLDY    82  76  81 S3        29.96R HX  89
TAYLORVILLE    NOT AVBL
$$

ILZ033-039-045-046-055>057-062-063-290500-
EAST-CENTRAL ILLINOIS

CITY           SKY/WX    TMP DP  RH WIND       PRES   REMARKS
CHAMPAIGN      PTCLDY    74  72  93 CALM      29.97F
MATTOON        PTCLDY    76  71  85 CALM      29.96F
$$

ILZ079-100>102-290500-
SOUTHWEST ILLINOIS

CITY           SKY/WX    TMP DP  RH WIND       PRES   REMARKS
BELLEVILLE     MOCLDY    79  79 100 CALM      29.94S HX  84
CAHOKIA*       MOCLDY    82  76  81 CALM      29.95R HX  89
SPARTA*        MOCLDY    78  76  91 SE7       29.97F HX  81
$$

ILZ064>066-069>071-074>076-080>082-084>086-088>090-092>094-290500-
SOUTH-CENTRAL ILLINOIS

CITY           SKY/WX    TMP DP  RH WIND       PRES   REMARKS
CARBONDALE     CLOUDY    78  76  93 CALM      29.97F HX  81
MT. VERNON     CLOUDY    77  70  78 CALM      29.97F
SALEM*         MOCLDY    83  74  76 SE3       29.97F HX  89
$$

ILZ067-068-072-073-078-083-087-091-290500-
SOUTHEAST ILLINOIS

CITY           SKY/WX    TMP DP  RH WIND       PRES   REMARKS
LAWRENCEVILLE  MOCLDY    79  76  90 S5        29.96F HX  83
HARRISBURG*    CLOUDY    77  77 100 CALM      29.99F
$$

ABBREVIATIONS USED IN REMARKS
   TC - TEMPERATURE IN CELSIUS
  WCI - WIND CHILL INDEX
   HX - HEAT INDEX
  VSB - VISIBILITY
$$




USA.gov is the U.S. government's official web portal to all federal, state and local government web resources and services.